Zurück zum Katalog

STARLINK-38177

AktivKommunikationSSO
NORAD 100234·PAYLOAD·🇺🇸 United States

Gestartet May 3, 2026 von Vandenberg Space Force Base

Loading…

Nächste Überflüge (nächste 24 Stunden)

TLE

AktuellSource: Space-Track

Epoche: Sep 14, 2026, 09:28 UTC

1 A0234U 26177X   26257.39472369  .00050475  00000-0  92455-3 0  9996
2 A0234  97.2829 308.1091 0000256  69.3005 290.8273 15.49166052  6417

Verfolge STARLINK-38177 in Echtzeit mit AllMySat

Download on the App Store